map of GND home
GND - Airport
Location
City:  St. George's, Grenada, Grenada
Name:Maurice Bishop International Airport
Old (Alt.):Point Salines International Airport
ICAO:TGPY
IATA:GND

Details
Type:Airport (Aerodrome, Airfield)
Use:Public/Civil, International (customs port of entry)
Latitude:1200'15"N (12.004167)
Longitude:6147'17"W (-61.788055)
Elevation:39 ft (12 m)
Variation:14.80W (WMM2015 magnetic declination)
-0.05 annual change
Runways:1
Longest:8999 × 148 ft (2743 × 45 m), paved

Time
Time Zone:UTC-4
Local Time:

Weather
METAR:TGPY 171100Z 07006KT 9999 SCT017 26/23 Q1013 NOSIG ADJ SHRA-W/N/E
TAF:TGPY 170630Z 1706/1806 06009KT 9999 SCT017
BECMG 1710/1712 09015KT SCT018 SCT038
BECMG 1723/1801 09009KT SCT018

Related Locations
Nearby:
Farthest:TMC: 12241 mi / 19699 km
Tambolaka, NT, ID

Find:

   beyond  
but within

Other Information
Maps:
NOTAMs:
Links:
Sources:

  
flag of Grenada   

Airport Diagram

Airport diagram for GND

Airport diagram PDF

Sectional Chart

Flight Planning
at skyvector.com

Satellite Image

Google Maps Satellite view

 

Copyright © 2004-2017 Karl L. Swartz. All rights reserved.
The Great Circle Mapper name and logo are trademarks of the Great Circle Mapper.
All other trademarks mentioned herein belong to their respective owners.
Please see credits for attibutions and further copyright information.

  Follow gcmap on Facebook Follow gcmap on Twitter Follow gcmap on Google+ GCmap on LinkedIn

hCard Microformat

Geo Microformat